Theta_e
322 323 324 324 322 320 320 321 320 322 324 323 323 325 329 331 330 328 327 327 328 328 327 328 329 330 330 329 328 327 326 326 327 327 327 327 326 324 324 323 322 322 322 321 320 320 321 321 321 322 322 322 322 322 322 322 323 323 324 322 322 321 318 316 316 315 318 321 320 315 311 309 307 306 304 300 299 299 298 298 298 298 298 298 298
321 324 326 325 324 321 319 319 319 319 320 320 319 320 325 329 329 327 326 326 326 327 327 327 327 328 329 328 328 327 325 325 326 326 326 327 326 325 323 322 321 321 321 321 321 320 321 321 321 321 322 322 322 322 323 323 323 323 323 323 322 320 318 317 317 317 320 321 319 318 313 306 304 304 301 299 299 298 298 298 298 298 298 298 298
321 322 326 326 323 321 320 319 318 316 316 317 317 318 321 323 324 324 325 326 326 327 326 326 327 327 328 327 327 327 325 325 325 325 325 326 326 326 325 324 323 323 322 322 322 321 321 321 321 321 322 322 323 323 323 322 323 322 322 322 320 319 318 317 316 316 319 319 318 319 315 306 306 306 301 298 299 298 298 298 298 298 298 298 298
320 321 324 324 323 321 320 318 317 315 315 316 317 317 317 318 319 320 322 323 325 326 326 326 327 327 327 327 327 327 326 326 326 326 326 326 327 327 327 326 325 325 324 323 323 323 323 322 322 322 322 323 322 323 323 323 323 322 322 322 318 316 317 317 317 315 316 315 314 317 318 313 312 313 307 300 299 298 298 298 298 298 297 297 297
319 319 321 322 321 320 318 317 316 315 315 316 316 315 314 314 315 317 319 320 321 323 324 325 326 326 327 326 327 327 328 328 328 328 327 327 327 327 327 327 326 325 324 324 324 324 324 323 323 323 323 323 323 322 322 323 323 322 322 322 318 317 318 320 318 315 314 312 313 318 319 317 318 319 312 304 303 301 298 299 298 297 297 297 297
319 319 319 320 318 317 317 317 316 315 315 315 315 314 314 313 313 314 316 317 318 319 320 322 323 324 325 325 325 325 326 327 326 325 325 325 325 325 326 326 325 325 324 324 324 324 324 324 324 324 323 323 324 323 322 323 324 323 323 321 319 318 318 320 319 316 314 311 313 316 315 315 316 315 311 308 309 305 301 300 298 297 297 297 297
319 319 319 319 318 317 316 316 315 315 315 315 315 315 315 314 314 314 314 315 316 317 317 319 320 321 322 322 322 322 322 322 322 322 322 323 323 324 325 325 325 325 324 325 325 325 324 325 325 324 323 323 324 324 323 324 324 323 323 321 319 318 318 319 319 315 314 311 309 310 313 316 312 308 308 310 310 306 303 302 299 297 297 297 297
318 319 319 319 319 317 316 315 314 314 314 314 315 315 315 315 315 314 314 314 314 315 315 316 317 318 319 320 320 320 320 320 321 321 321 322 323 323 324 324 324 324 324 325 325 326 325 325 324 323 323 323 324 324 323 324 324 323 323 320 317 318 317 317 317 315 312 311 306 303 309 313 307 304 306 307 306 304 303 303 300 298 298 298 298
317 317 318 318 318 317 316 315 314 314 314 314 314 314 315 315 315 315 315 314 314 314 314 314 315 316 317 318 318 319 319 320 321 322 322 322 323 323 323 323 323 323 324 324 325 325 325 325 324 322 322 323 323 324 323 323 323 323 323 319 317 319 318 316 316 315 312 309 305 302 304 305 302 302 303 303 302 302 302 302 299 298 299 299 298
317 317 317 317 317 317 317 316 316 315 314 314 314 314 314 314 315 315 315 315 315 315 314 314 314 315 316 316 317 318 318 320 322 323 323 324 324 324 323 322 322 322 323 323 324 325 325 324 324 322 322 322 323 323 323 323 321 321 322 319 317 321 323 319 315 315 312 307 304 302 302 302 301 302 303 303 302 301 301 300 299 299 300 300 299
318 318 318 317 317 317 318 317 316 316 315 315 315 315 315 314 314 314 315 315 315 315 315 315 315 314 314 315 315 316 318 319 321 322 323 323 323 324 324 323 322 323 323 323 323 324 324 324 323 322 321 321 323 323 323 322 319 319 320 318 317 323 326 321 316 314 311 305 303 302 301 301 302 303 304 304 303 301 301 300 300 301 300 299 299
319 319 318 318 318 317 317 317 317 317 316 316 316 315 315 315 314 314 314 315 315 316 316 316 315 315 314 314 315 315 316 317 318 319 320 321 321 322 323 323 323 323 323 323 323 323 323 322 322 322 321 320 322 322 322 322 319 318 318 316 317 323 326 321 317 315 309 304 303 302 300 300 302 304 304 303 302 302 302 301 301 301 299 298 299
319 319 319 318 318 317 317 317 317 317 317 317 317 316 316 315 314 314 314 314 314 315 315 316 316 315 314 314 315 315 316 316 316 317 318 318 319 320 322 322 322 322 322 322 321 321 322 321 321 321 321 320 320 320 320 321 320 319 318 318 319 321 322 319 316 315 308 302 302 302 300 301 303 304 303 302 302 301 301 300 300 299 298 297 297
318 318 318 318 318 318 317 317 318 318 318 318 317 316 316 315 315 314 314 314 314 314 314 315 315 314 315 315 315 316 316 316 316 316 317 317 318 319 320 321 321 321 320 320 320 320 321 320 320 321 321 320 319 318 319 320 320 319 319 320 321 322 322 319 316 314 306 300 301 300 300 302 303 302 301 301 301 300 300 300 299 298 297 296 295
318 318 317 317 317 317 317 317 317 317 317 317 316 316 316 315 315 314 314 314 314 314 313 314 314 314 315 315 315 316 316 316 316 316 316 317 318 319 319 320 320 320 320 320 320 321 321 321 321 322 321 320 319 318 319 320 320 320 320 320 320 322 322 320 317 312 304 300 301 299 300 302 301 301 300 300 300 300 300 300 299 298 296 295 294
317 317 317 316 316 316 316 316 316 316 316 316 316 316 315 315 315 314 314 314 314 314 314 313 313 314 314 314 315 315 316 317 317 317 317 317 318 319 319 320 320 320 322 322 322 322 322 322 322 322 321 319 318 319 320 322 321 320 320 319 318 319 318 318 317 309 302 300 300 299 300 301 300 300 299 299 299 299 299 298 297 297 296 295 294
316 316 315 315 315 315 315 315 315 315 315 315 315 315 314 315 315 315 314 314 314 314 314 314 314 314 314 314 314 315 315 316 316 317 317 318 319 319 320 321 321 322 322 322 322 323 323 324 324 323 321 319 319 320 322 322 320 320 318 317 317 318 317 317 314 305 300 300 299 299 300 300 299 299 299 299 298 298 298 297 297 296 296 295 294
316 316 316 315 315 315 315 315 315 314 314 314 314 313 313 313 313 314 314 314 314 313 313 313 314 314 314 313 314 314 314 315 316 317 319 319 320 320 320 321 321 322 322 321 322 323 325 326 327 326 323 321 321 322 323 322 320 319 318 317 318 318 317 316 309 301 299 299 298 299 300 300 299 298 298 298 298 297 297 297 297 296 296 295 295
316 315 315 315 314 315 315 315 315 315 314 314 314 313 313 313 312 313 313 314 313 313 313 313 313 313 313 313 314 315 316 316 317 319 320 320 319 319 320 321 321 321 321 320 321 322 325 328 329 327 325 324 324 324 323 321 320 319 318 319 319 317 317 313 305 299 299 299 298 300 300 299 298 298 298 298 297 297 297 296 296 296 295 295 295
314 314 314 313 313 313 313 314 314 315 315 315 314 315 314 314 313 313 313 313 313 313 312 312 312 312 312 314 315 316 317 318 318 320 320 320 319 319 320 321 321 321 321 320 321 322 325 328 329 328 327 326 326 325 324 322 321 319 320 320 317 316 315 309 301 298 298 298 299 300 300 298 298 298 297 297 297 297 296 296 296 296 295 295 295
312 312 312 311 311 311 311 312 312 313 313 314 314 315 315 314 314 314 313 313 313 313 312 312 312 312 312 313 314 316 317 318 318 319 319 319 318 319 320 321 322 322 321 321 321 321 325 329 330 328 327 327 326 326 325 323 321 319 319 318 316 314 312 304 299 298 298 297 299 300 299 298 297 298 297 297 297 297 296 296 296 296 295 295 295
311 311 311 311 311 311 312 312 312 312 312 312 313 313 314 314 314 313 313 312 313 312 312 312 311 311 313 314 315 317 318 318 318 318 318 318 318 319 320 322 323 322 322 321 321 322 325 329 330 328 327 326 326 326 325 323 321 319 317 316 315 312 307 301 298 298 297 298 300 299 298 298 297 297 297 297 297 296 296 296 296 296 296 296 296
312 312 311 311 312 311 312 312 312 312 312 312 312 312 313 313 313 313 313 312 312 312 311 311 311 311 312 314 316 318 318 318 318 317 317 317 318 319 321 322 323 322 322 322 322 323 326 329 330 329 327 326 325 326 326 324 322 319 317 317 315 310 303 299 297 297 297 299 300 299 297 297 297 297 297 297 297 296 296 296 296 296 296 296 296
311 311 311 311 311 311 311 312 312 312 312 312 312 312 312 312 312 312 312 312 312 312 312 311 311 311 310 311 313 314 314 315 315 315 315 317 319 321 322 322 323 323 323 323 323 325 327 329 330 329 327 325 324 326 325 323 322 320 317 318 317 309 301 298 297 297 297 299 299 298 297 298 297 297 297 297 296 296 296 296 296 296 297 296 296
311 311 311 311 311 311 311 311 311 311 311 312 312 312 312 312 312 312 312 312 312 312 312 311 311 310 310 309 309 309 310 311 313 314 314 316 318 319 320 321 321 322 323 323 325 326 328 329 330 329 328 325 324 326 325 322 322 320 318 318 318 310 300 297 297 297 297 298 298 297 297 297 297 297 297 296 296 296 296 296 297 297 297 296 296
312 312 311 311 311 311 311 311 311 311 311 312 312 312 312 312 312 312 311 312 312 312 312 312 311 311 311 311 310 310 310 311 312 313 314 315 316 318 319 320 322 323 323 324 325 326 328 329 328 329 328 325 325 326 325 323 322 320 318 317 317 310 300 297 297 296 296 297 297 297 297 297 297 297 297 296 296 296 296 297 297 297 297 297 296
312 312 312 312 311 311 311 311 311 311 311 311 311 312 312 312 312 312 312 312 312 312 312 312 312 312 312 312 312 312 312 312 313 313 314 315 317 318 319 321 322 323 323 323 325 326 328 328 328 328 325 324 325 325 324 323 322 320 319 318 315 308 299 296 296 296 296 296 296 296 296 296 297 296 296 296 296 296 296 297 298 298 297 297 296
312 312 312 312 312 312 312 312 312 312 311 311 311 311 311 312 312 312 312 312 312 312 312 312 312 312 312 312 312 312 312 312 312 313 313 315 317 318 319 321 322 323 323 324 325 325 327 328 329 327 323 323 325 325 324 323 321 319 318 317 313 306 298 296 296 295 295 296 296 296 296 296 296 296 295 295 295 296 297 298 298 298 298 297 296
312 312 312 313 313 313 313 313 313 313 312 312 311 311 311 311 311 311 312 312 312 312 312 311 311 311 311 311 311 311 311 312 311 312 312 312 314 316 318 320 321 323 324 325 325 325 326 328 327 326 323 322 323 324 324 322 320 319 317 314 311 304 298 296 296 295 295 295 295 296 296 296 296 295 295 295 295 296 297 298 298 298 298 297 297
312 312 312 312 312 312 313 313 313 313 313 313 312 312 312 311 311 311 311 311 311 311 311 311 311 311 311 312 311 311 311 311 311 311 311 311 312 313 315 317 319 321 323 324 325 325 326 326 326 325 324 322 322 324 323 321 320 319 316 313 308 302 297 296 296 295 296 296 295 296 295 295 295 295 295 295 296 297 298 298 299 299 299 298 297
311 311 312 312 312 313 313 313 313 313 313 313 313 313 313 313 312 311 311 311 311 311 311 311 311 312 312 312 312 312 312 311 311 311 310 311 311 311 312 313 315 318 320 322 323 324 325 325 324 325 324 323 322 323 323 321 320 319 315 311 307 301 297 296 296 295 296 296 296 296 295 295 295 295 295 295 296 297 298 299 299 299 299 298 297
311 311 312 313 314 314 314 314 314 313 313 314 313 314 314 314 313 312 311 311 311 311 312 312 312 312 312 312 312 312 312 311 311 310 310 310 310 311 311 312 313 314 316 318 321 322 323 323 323 324 324 323 322 322 322 321 320 319 315 310 305 300 297 296 296 295 295 295 295 295 295 295 295 295 295 295 296 298 298 299 300 299 299 298 297
313 313 314 315 315 315 314 314 314 313 314 314 314 314 314 314 313 312 311 311 311 311 311 312 312 312 312 312 312 312 312 311 311 310 309 309 309 309 310 310 310 311 312 314 315 317 320 321 322 323 323 323 323 322 321 321 320 319 315 308 302 298 297 296 296 295 295 295 295 295 294 295 295 295 295 296 297 298 299 299 300 299 299 298 297
315 315 315 315 315 315 314 313 314 313 313 314 314 313 313 313 313 312 311 311 311 311 311 311 311 312 312 312 312 312 312 312 311 311 310 309 309 310 310 310 311 312 313 314 315 316 319 321 321 321 321 321 321 321 320 320 319 319 314 305 299 297 296 296 296 295 295 295 294 294 294 294 295 295 295 296 297 298 299 300 300 299 299 298 297
315 315 315 315 314 314 314 314 314 313 313 313 313 313 313 313 313 312 311 311 311 311 311 311 311 311 312 312 312 312 312 312 311 311 310 309 309 311 312 313 314 316 316 317 318 318 320 321 321 321 320 319 319 319 319 318 317 316 311 302 297 296 296 295 295 295 295 294 294 294 294 294 294 294 295 296 298 299 300 300 300 299 299 299 297
315 314 314 314 314 314 314 314 313 313 312 312 313 313 313 312 312 312 312 311 311 311 311 311 311 311 312 312 312 312 312 312 312 310 309 309 310 313 314 315 316 318 319 319 320 320 320 320 320 320 319 318 318 318 318 317 315 312 307 299 296 296 295 295 295 294 294 294 293 293 293 293 294 294 295 296 298 299 300 300 300 300 300 299 298
314 314 314 314 314 314 314 314 313 313 312 312 312 313 313 312 311 311 311 311 311 311 311 311 310 311 311 312 312 312 312 312 311 311 309 309 311 313 315 316 317 317 317 318 318 320 320 319 319 319 318 318 317 317 317 316 314 311 305 299 296 295 295 295 294 294 294 293 293 293 293 293 294 294 295 296 298 300 300 300 300 300 299 299 298
314 314 314 314 314 314 314 313 313 312 312 312 312 312 312 312 311 311 311 311 311 311 311 311 311 311 311 311 312 312 311 311 311 311 310 309 310 312 314 315 316 315 316 317 317 319 319 319 319 318 317 317 317 316 316 316 315 311 305 299 296 295 295 294 294 293 293 293 293 292 292 293 293 294 295 297 299 300 300 300 300 299 299 299 298
314 314 314 314 313 313 313 313 312 312 312 312 311 311 311 311 311 311 311 311 311 311 311 311 311 311 310 311 311 311 311 311 311 311 310 310 311 312 314 314 314 313 314 315 317 318 319 319 318 317 316 316 316 316 315 315 315 311 304 298 296 295 294 294 294 293 293 293 292 292 292 293 293 294 295 297 299 300 300 300 299 299 299 298 298
313 313 313 313 313 312 312 312 312 311 311 311 310 310 311 310 310 310 311 311 311 311 311 311 311 311 310 310 311 311 311 311 311 311 311 310 310 311 313 314 313 312 313 315 316 317 317 317 316 315 315 315 315 315 314 314 314 310 303 297 295 294 294 294 294 293 293 293 292 292 292 292 292 293 295 298 299 300 300 299 299 299 299 298 298
313 312 312 312 311 311 311 311 310 310 310 310 310 310 310 309 309 310 310 310 310 311 311 311 311 311 310 310 310 311 311 311 310 310 310 310 310 310 310 311 311 311 313 314 315 315 315 315 315 314 314 314 314 314 313 313 313 310 303 297 295 294 294 294 293 293 293 293 292 292 292 292 292 293 295 298 300 300 300 299 299 299 298 298 298
312 311 311 311 311 310 310 310 310 310 310 310 310 310 310 309 309 309 309 310 310 310 310 310 310 310 310 310 310 310 310 310 310 310 310 310 310 310 310 310 310 311 311 312 312 313 313 313 313 314 313 313 313 313 312 313 312 309 303 298 295 294 294 293 293 293 292 292 292 292 292 292 292 293 295 298 300 300 299 299 299 298 298 298 298
311 311 311 310 310 310 310 310 310 310 309 309 309 309 309 309 309 309 309 309 309 309 310 310 310 310 310 310 310 310 310 310 310 310 310 310 310 310 310 310 310 311 310 311 311 311 311 312 312 312 312 312 312 312 311 311 310 306 301 297 294 293 293 292 292 292 292 292 292 291 291 291 291 293 295 298 300 300 299 299 298 298 298 297 297
310 310 310 310 310 310 310 310 309 309 309 309 308 309 308 309 309 309 309 309 309 309 309 309 309 309 309 310 310 310 310 310 310 310 309 309 309 309 309 309 309 309 309 309 309 310 310 310 310 310 310 310 310 310 310 309 307 303 298 295 293 292 292 292 291 291 291 291 290 290 290 290 290 292 296 298 299 299 299 298 298 297 297 297 297
309 309 309 309 309 309 309 309 309 309 309 308 308 308 308 308 308 308 309 309 309 309 309 309 309 309 309 309 309 309 309 309 309 309 309 309 309 308 309 309 308 308 308 308 308 308 308 308 308 308 308 308 309 309 308 307 305 301 297 294 292 292 291 291 291 291 290 290 290 289 289 289 289 292 296 298 299 299 299 298 297 297 297 297 297
309 309 310 310 309 309 309 309 309 309 309 309 308 308 308 308 308 308 308 309 309 309 309 309 309 309 309 309 309 309 309 309 309 308 308 308 308 308 308 308 308 308 308 308 307 307 307 307 307 306 306 307 307 307 306 305 303 301 297 294 292 291 291 290 290 290 290 289 289 289 288 288 288 291 295 298 299 298 298 298 297 297 297 297 296
309 309 309 309 309 309 309 309 309 309 308 308 308 308 308 308 308 308 308 308 309 309 309 309 309 309 309 309 309 308 308 308 308 308 308 307 307 307 307 307 307 307 307 306 306 306 306 306 306 305 305 305 305 305 305 304 302 301 298 295 293 291 291 290 290 289 289 289 289 289 288 288 288 289 293 296 298 298 298 298 297 297 297 296 295
309 309 309 309 309 309 309 308 308 308 308 308 308 308 308 308 308 308 308 308 308 308 308 308 308 308 308 308 308 308 308 308 307 307 307 307 307 307 306 306 306 306 306 306 305 306 305 305 304 304 304 304 304 305 305 304 302 301 299 297 294 292 291 290 290 289 289 289 289 288 288 288 287 288 291 295 297 298 298 298 297 297 296 295 294
308 309 309 309 309 309 308 308 308 308 308 308 307 307 308 308 308 308 308 308 308 308 308 308 308 308 308 308 308 307 307 307 307 307 307 307 306 306 306 306 306 305 305 305 305 305 304 303 302 302 302 302 302 303 302 301 300 299 298 297 295 293 291 290 290 289 289 288 288 288 288 288 287 288 290 293 296 298 298 298 297 296 295 294 293
308 309 309 309 309 308 308 308 308 308 308 307 307 307 307 307 307 308 308 308 308 308 308 308 308 308 307 307 307 307 307 307 307 307 307 307 306 306 306 305 305 305 304 304 304 304 303 302 302 301 300 300 300 299 299 298 297 297 296 295 294 292 291 290 290 289 288 288 288 288 288 288 288 288 288 290 294 297 298 298 297 296 294 293 293
308 309 309 309 308 308 308 308 308 307 307 307 307 307 307 307 307 307 307 307 307 307 307 307 307 307 307 307 307 307 307 307 307 306 306 306 306 306 305 305 305 304 304 304 304 303 303 302 302 301 300 299 299 298 297 297 296 295 294 293 292 291 290 289 289 288 288 288 288 288 288 288 288 288 287 288 290 294 297 298 297 295 293 293 292
Wind_Speed
22 22 22 23 24 24 25 26 26 27 29 29 28 27 28 29 29 29 27 29 31 32 33 34 33 32 30 30 30 29 27 25 25 24 23 23 22 21 22 22 22 22 22 21 21 20 19 18 16 15 14 14 13 11 9 10 9 8 9 9 9 10 9 8 5 4 7 6 2 2 5 6 4 6 7 6 5 4 3 3 5 4 5 5 5
21 23 24 23 24 25 26 27 28 28 28 30 31 30 29 30 31 31 29 30 32 33 34 34 34 33 32 31 30 30 29 28 28 27 26 25 24 23 23 23 22 22 22 22 21 20 19 18 16 15 14 14 12 11 11 13 12 11 11 11 10 11 10 8 6 5 7 8 6 4 7 7 5 6 7 5 4 3 2 2 4 4 4 5 5
23 24 26 26 26 26 27 28 29 27 27 29 31 31 32 32 32 33 32 32 33 34 35 35 34 33 32 31 30 30 30 29 30 29 27 26 26 26 25 25 23 22 22 22 21 21 20 18 16 15 14 14 12 12 13 14 13 13 13 13 13 13 12 11 9 8 8 10 11 9 9 9 7 7 7 5 5 3 1 2 3 3 4 5 6
25 26 27 28 28 28 28 29 29 28 28 30 31 32 34 35 34 34 34 34 34 35 36 35 34 33 33 32 31 30 31 30 30 30 29 28 28 28 27 27 26 25 24 23 21 21 21 19 17 16 15 15 15 14 14 14 13 14 13 13 13 13 12 12 11 10 9 11 14 12 9 10 9 9 8 7 4 3 1 2 3 4 5 5 6
27 27 28 29 29 30 30 30 29 30 31 31 31 32 33 34 35 35 35 35 35 36 37 36 35 35 34 33 32 32 32 32 32 32 32 31 31 30 28 28 27 26 25 24 23 22 21 20 19 18 18 17 17 16 16 16 15 15 15 14 14 13 11 12 11 11 11 12 15 13 10 12 12 11 10 9 5 4 3 2 3 4 4 5 6
27 27 28 29 28 29 30 31 30 31 32 31 30 30 31 32 34 35 36 36 36 36 37 36 36 36 37 36 36 36 37 37 37 36 35 34 33 31 29 28 27 26 25 24 24 24 23 22 21 22 21 19 19 17 17 17 17 17 17 15 14 13 13 13 13 12 12 13 16 15 12 12 12 13 13 11 9 7 6 4 3 4 4 4 6
27 26 27 29 28 28 30 31 32 31 30 30 30 30 31 32 33 34 35 36 37 37 37 36 37 37 38 38 37 38 39 39 38 37 35 34 33 30 29 29 27 26 25 25 25 25 23 23 23 24 23 22 21 20 19 19 19 19 18 16 15 15 17 18 16 14 13 13 16 16 14 11 12 15 15 13 12 11 9 7 3 2 3 4 6
31 30 29 30 29 29 29 29 30 31 30 29 30 30 32 33 33 33 34 35 36 37 37 37 37 38 38 38 38 38 39 39 38 36 35 34 33 32 31 30 29 28 27 26 26 26 24 24 24 25 25 25 24 23 23 22 21 20 20 18 17 17 18 18 18 15 13 14 15 15 15 14 13 14 13 12 11 11 10 8 4 2 3 4 6
36 35 33 32 33 32 30 29 28 29 29 30 30 30 32 34 34 34 34 35 36 37 38 38 38 38 39 38 39 39 39 39 38 36 36 35 34 34 33 32 31 30 29 29 29 28 27 26 25 25 25 26 26 24 24 24 23 22 22 21 19 18 17 16 17 15 13 15 17 16 15 16 15 14 13 12 11 10 10 8 5 3 4 5 6
37 38 36 35 35 34 31 29 28 28 30 30 30 31 33 35 37 38 37 37 37 37 38 38 37 38 39 40 40 40 40 40 39 38 38 37 36 36 36 35 34 33 32 31 31 31 31 30 28 27 27 27 27 25 25 25 24 24 24 22 21 21 21 18 16 15 15 17 18 16 16 16 15 15 13 12 11 9 8 7 5 2 3 5 5
37 38 37 36 35 35 33 32 31 31 32 33 34 34 34 35 37 39 39 39 39 39 39 38 38 38 39 40 40 40 41 41 41 41 40 40 39 38 38 38 36 35 33 32 32 33 34 33 31 30 29 29 29 28 27 26 25 25 24 23 22 24 24 20 17 16 16 18 18 17 16 15 15 14 12 11 9 8 6 5 3 2 3 4 4
36 37 38 37 36 35 35 34 33 33 34 35 35 35 35 35 36 39 40 40 41 41 41 40 40 39 39 39 39 40 41 42 42 42 42 42 41 40 39 39 38 36 34 34 34 35 35 34 32 31 30 31 31 30 29 28 26 25 24 24 23 24 24 22 20 18 17 19 19 18 18 17 15 13 11 10 8 7 5 4 3 2 3 5 5
34 35 37 38 38 37 38 36 35 35 35 35 35 35 35 35 35 37 39 40 41 41 42 42 42 41 40 40 40 40 40 41 42 42 42 41 41 40 39 39 38 38 37 37 36 36 35 34 33 31 31 31 31 30 29 28 27 25 24 23 24 25 25 24 21 19 18 20 20 20 19 17 15 13 11 10 8 6 5 4 4 3 3 4 5
31 32 34 36 37 36 37 36 36 36 35 35 36 36 36 36 36 36 38 40 41 41 41 42 42 42 42 41 41 41 41 42 42 42 41 41 40 40 39 39 39 40 40 38 37 37 35 34 32 31 32 31 30 30 28 26 26 26 24 23 25 26 26 24 21 20 21 22 22 21 19 17 15 13 11 9 8 7 5 5 5 3 3 3 5
23 26 28 31 33 34 34 35 35 35 34 35 36 36 36 37 37 37 38 40 41 41 41 42 42 42 42 42 42 42 42 42 42 42 41 41 40 40 39 39 39 40 40 38 37 36 34 33 31 32 33 32 29 28 26 23 25 26 26 25 26 28 29 27 23 22 25 25 23 21 19 18 16 13 11 10 8 7 7 6 5 3 2 3 4
18 19 21 24 26 28 30 32 33 33 33 34 35 36 36 37 38 38 37 38 40 41 42 42 42 42 42 42 43 43 43 43 43 43 42 41 40 40 40 39 39 40 39 38 37 36 34 33 32 33 34 32 28 27 24 24 25 26 27 27 27 28 30 28 25 25 27 25 23 22 20 18 16 14 12 10 9 8 7 6 5 4 3 3 3
19 18 18 19 20 21 22 23 25 27 29 30 31 31 31 32 35 36 37 38 39 41 42 42 42 43 43 43 43 44 44 45 45 44 43 42 40 40 40 39 39 39 40 38 38 37 35 34 33 33 33 31 28 26 25 25 26 27 28 28 27 26 26 26 26 27 28 26 24 22 20 18 16 14 13 11 10 8 7 6 5 5 4 4 4
18 18 17 18 18 19 20 20 20 20 22 24 24 24 23 24 27 30 33 36 37 39 40 41 42 43 44 44 44 44 45 45 45 44 43 41 40 40 40 39 39 40 40 38 37 37 35 35 34 33 31 30 27 26 26 26 26 28 29 27 26 24 23 25 28 29 28 26 25 23 21 19 17 15 13 12 10 8 7 6 5 5 5 6 6
13 14 14 15 16 18 19 20 20 20 20 20 20 21 20 20 22 24 27 31 33 36 38 40 42 43 44 44 44 44 43 44 43 43 42 41 41 41 40 40 40 40 39 37 36 36 35 36 36 34 31 29 27 27 26 26 27 28 29 28 28 26 24 27 30 30 29 27 25 23 21 19 17 16 14 12 10 9 7 6 5 5 5 6 7
10 11 12 13 13 14 15 17 19 21 22 22 22 22 21 21 21 22 24 27 29 32 34 37 40 41 43 43 43 42 41 41 41 41 41 41 41 40 40 40 40 40 38 36 35 33 33 36 37 35 32 30 29 29 27 26 26 27 30 30 29 26 27 30 32 31 29 27 25 23 21 20 18 16 14 12 11 9 7 6 5 4 5 7 8
5 7 9 10 11 12 12 14 15 17 20 22 24 25 25 25 24 24 25 26 28 30 32 34 36 38 40 41 42 42 40 39 39 39 40 40 40 40 40 39 39 39 37 35 34 31 31 34 36 35 33 31 31 30 27 24 24 26 29 28 25 26 30 32 32 31 29 27 25 24 22 20 18 16 14 13 11 9 8 6 5 5 5 7 8
5 7 9 10 11 12 13 14 14 15 16 17 20 24 27 28 28 27 28 28 29 30 30 31 33 35 37 38 39 40 39 38 38 39 39 39 39 40 39 38 38 38 36 35 32 30 29 33 36 36 33 31 32 31 28 25 23 25 27 24 23 28 32 33 32 31 29 28 26 24 23 21 19 17 15 13 11 9 8 6 6 5 6 7 9
4 4 4 5 6 8 11 13 14 14 14 14 15 18 22 26 28 29 29 28 28 28 28 29 31 33 35 37 38 38 37 37 38 38 38 38 38 38 37 37 37 36 35 33 30 28 28 32 36 35 33 31 31 33 32 26 21 23 24 22 23 29 33 32 32 30 29 28 26 25 24 21 19 17 15 13 11 10 8 6 6 6 7 8 10
2 3 3 2 1 1 4 7 9 10 11 12 12 12 15 18 21 23 25 25 26 26 26 27 28 29 31 33 35 35 35 36 37 38 38 37 36 35 35 36 36 35 34 31 29 27 27 31 35 35 33 30 31 36 34 24 20 23 23 23 24 29 33 32 31 30 29 28 27 25 24 22 20 18 15 14 12 10 8 7 6 6 7 9 10
6 7 6 5 5 4 3 3 4 5 7 8 8 9 10 12 14 16 18 20 21 22 22 21 21 21 22 25 28 30 33 34 35 35 35 35 34 34 34 34 34 33 32 30 29 27 28 30 32 33 32 29 32 38 34 23 23 25 25 25 26 29 34 32 30 30 29 28 27 25 24 22 20 18 16 14 12 10 9 7 6 6 7 9 10
7 6 6 6 7 7 8 7 6 5 5 6 6 6 7 8 9 11 13 14 16 17 17 16 16 16 16 18 19 22 25 27 28 29 29 30 30 31 31 32 32 32 31 30 29 28 28 29 29 30 31 30 35 39 33 25 26 26 24 25 27 31 35 34 31 31 29 28 27 25 24 22 20 18 16 14 12 10 9 7 6 7 8 9 11
5 5 5 6 8 9 10 10 10 8 7 6 6 6 6 7 8 9 10 11 12 13 13 14 14 14 15 16 16 18 19 21 23 25 26 26 27 28 29 30 31 32 32 29 27 27 27 28 30 30 29 31 37 38 32 26 26 25 24 26 29 34 37 34 32 32 30 28 27 26 24 22 20 18 16 14 12 11 9 8 7 8 8 10 11
5 4 5 6 7 8 9 9 10 10 9 8 7 6 6 6 8 9 9 10 10 11 12 13 15 15 16 16 17 18 19 21 22 24 25 26 25 25 25 26 27 29 29 27 26 26 26 29 32 32 28 28 33 36 32 28 25 24 26 28 31 37 38 36 34 32 31 30 28 26 24 22 20 18 16 15 13 12 10 8 8 8 9 10 11
8 5 3 2 3 4 6 8 9 10 11 11 10 9 8 7 7 8 8 9 10 10 12 13 14 15 16 16 16 17 19 20 22 23 25 25 25 24 24 25 26 26 26 26 25 25 27 29 31 32 29 27 30 35 34 29 25 24 25 28 33 38 38 36 35 33 32 31 29 27 25 23 21 19 17 16 14 13 11 9 9 9 10 11 12
13 11 8 7 6 6 7 8 9 10 12 13 12 12 12 10 10 9 8 8 9 10 11 12 13 14 15 15 15 16 17 19 20 21 23 23 24 25 25 26 26 26 26 26 26 27 28 28 28 31 31 28 30 35 35 29 25 23 24 28 35 39 38 37 36 34 33 32 29 28 26 23 22 20 18 17 15 14 12 10 10 10 11 12 13
18 16 15 14 14 14 13 13 13 12 13 14 15 15 14 14 13 12 10 10 10 10 11 12 13 14 14 15 15 15 16 17 18 19 20 21 22 24 25 26 26 27 27 27 26 27 28 27 28 31 32 29 28 32 33 30 24 22 24 30 36 39 38 37 36 35 33 32 30 28 26 24 23 21 19 18 16 15 13 12 11 11 11 12 13
22 21 20 20 20 20 18 16 15 15 15 16 16 16 16 16 15 14 13 12 13 13 13 13 13 13 14 14 14 14 14 15 16 16 17 18 19 20 22 24 25 26 27 27 28 27 27 27 29 31 32 31 29 29 31 30 25 22 26 31 36 39 39 37 36 35 33 31 30 29 27 25 23 21 20 19 17 16 14 12 11 11 12 13 14
26 26 25 23 21 20 18 16 14 14 15 16 16 17 17 16 15 15 14 14 15 15 15 15 14 14 14 14 13 13 13 13 14 14 15 15 15 15 16 18 20 21 23 24 26 27 27 28 29 30 33 34 33 32 31 29 26 24 27 33 37 38 38 37 37 36 34 32 30 29 28 26 24 23 22 20 19 17 14 13 12 12 13 14 15
27 26 25 21 20 19 17 15 14 14 14 14 15 15 15 14 14 14 14 14 16 17 17 17 17 16 15 14 13 12 11 12 12 13 14 13 13 12 12 12 14 15 16 18 21 23 25 26 27 29 33 36 35 32 29 26 25 26 28 34 37 37 37 37 36 35 34 32 31 29 28 26 25 24 23 22 20 17 15 13 13 12 13 15 15
25 24 23 21 20 19 17 16 15 14 13 13 14 14 13 13 13 13 13 14 15 18 19 19 19 17 16 15 13 12 11 12 12 12 13 13 12 12 12 12 13 14 16 17 19 21 23 23 23 25 30 34 32 28 24 23 24 27 31 35 36 36 36 36 35 34 33 32 31 29 28 27 26 25 24 22 20 18 15 14 13 13 14 15 16
24 24 23 22 22 20 19 20 20 18 16 16 17 17 14 14 14 13 13 13 15 16 18 18 17 16 15 15 14 13 13 12 12 12 12 13 13 13 13 13 14 15 17 18 20 20 20 20 20 22 27 31 28 23 22 21 22 27 32 36 37 37 37 36 36 34 33 32 31 30 29 28 27 26 25 23 21 18 16 14 13 13 14 15 16
22 22 22 22 23 23 25 26 25 23 21 20 21 21 17 16 16 16 14 14 14 15 15 16 15 14 14 14 14 14 13 12 12 12 12 12 13 14 14 15 16 16 17 17 18 18 18 18 18 21 26 28 24 21 21 20 21 26 33 37 38 38 38 38 36 34 33 32 31 31 30 29 28 27 26 25 22 18 16 15 13 13 14 15 15
27 26 26 27 28 29 30 29 27 26 25 24 24 22 18 17 19 18 16 15 15 14 13 14 14 14 14 14 15 15 14 13 12 12 12 13 13 14 14 15 16 17 17 17 16 17 18 19 19 20 24 25 22 20 20 21 22 27 34 38 39 39 40 39 37 35 34 33 32 32 31 30 29 28 27 25 22 19 17 15 14 14 14 14 15
30 29 29 29 29 29 28 27 27 26 25 24 23 20 18 19 20 20 18 16 15 13 12 12 13 14 15 15 14 14 14 13 12 12 13 13 14 15 15 16 16 16 17 17 18 18 18 20 21 22 23 24 23 22 21 22 25 31 36 40 41 41 40 39 38 37 35 34 34 33 32 31 31 29 28 25 22 19 17 16 15 15 14 14 16
22 22 23 23 23 23 23 23 24 23 22 21 19 19 19 20 21 20 18 15 14 13 13 13 14 15 15 15 15 14 14 13 13 12 13 13 14 16 17 18 18 18 17 18 18 18 19 20 22 24 25 26 26 25 24 25 29 34 39 41 41 41 41 40 39 38 37 36 35 34 34 33 32 30 28 26 23 20 18 17 17 16 15 15 16
18 18 17 17 18 19 20 21 21 21 19 18 18 19 20 20 20 19 17 15 14 15 15 16 16 16 16 16 15 15 14 14 13 13 13 14 14 15 16 17 18 18 19 19 20 20 21 23 25 27 29 30 31 30 28 29 31 35 39 41 41 40 40 39 38 38 37 36 36 35 35 34 33 31 29 26 23 21 20 19 18 17 16 17 18
17 16 15 16 17 19 20 20 20 19 17 16 16 18 19 19 19 18 17 17 17 17 17 16 16 16 16 16 16 15 15 14 14 14 13 13 13 14 15 16 17 18 19 20 22 23 25 28 30 32 34 35 35 34 32 31 32 34 38 40 40 39 38 37 37 37 37 36 35 35 35 34 33 31 29 27 24 22 22 21 20 18 18 19 19
17 17 17 18 19 20 20 19 18 16 15 15 16 17 18 18 19 18 19 19 19 18 16 15 15 15 15 15 15 14 14 13 13 13 13 12 12 13 14 15 16 18 20 21 23 25 27 30 31 32 32 32 31 30 29 29 31 33 36 39 39 38 38 37 37 37 35 34 33 33 34 33 32 31 29 27 25 24 25 24 22 20 20 20 21
18 18 17 16 17 17 17 16 15 14 13 13 14 15 16 16 17 17 17 17 16 15 14 13 13 12 12 12 12 12 12 12 12 12 12 12 12 13 13 14 15 17 18 20 21 22 23 25 25 26 26 26 26 26 27 28 30 32 35 37 38 38 38 37 37 36 34 33 32 32 33 33 32 31 30 28 28 28 28 26 24 22 22 22 23
16 15 13 11 11 11 10 10 9 9 9 9 10 11 11 12 12 13 13 13 12 11 11 10 10 9 9 10 10 10 10 10 11 11 11 12 12 12 13 13 14 15 16 17 17 18 19 20 20 21 21 22 24 25 25 27 29 32 35 37 37 38 37 37 37 36 35 33 32 31 31 32 32 32 32 31 31 31 30 28 25 23 23 23 24
13 11 8 7 8 7 6 6 6 6 7 7 7 8 8 9 10 10 10 10 10 10 10 9 9 9 9 9 9 9 9 9 9 10 9 9 10 10 11 11 12 13 13 14 15 16 17 18 19 19 20 21 22 24 25 26 29 32 35 36 36 36 36 36 37 37 36 35 34 32 32 32 34 34 35 35 35 33 32 30 28 26 26 25 25
11 8 7 7 7 6 6 6 6 6 7 7 7 8 8 9 9 10 10 10 10 10 10 10 10 10 9 9 8 8 8 7 7 8 7 8 8 8 8 9 9 10 11 11 12 13 14 15 16 16 18 19 21 23 24 26 29 32 34 35 35 36 36 37 38 38 38 37 36 35 35 35 36 37 39 39 38 36 34 33 31 29 28 27 27
11 10 9 9 8 7 7 6 6 7 7 7 8 9 9 10 10 11 11 10 10 11 10 10 10 9 8 7 7 6 6 6 6 6 6 6 7 7 7 8 8 9 9 10 10 11 11 12 13 14 15 18 19 21 21 23 26 29 31 33 35 36 37 38 39 39 39 39 39 39 38 39 40 41 43 44 42 40 38 36 34 32 30 29 29
14 13 12 10 9 8 8 8 8 8 8 9 9 10 10 11 12 12 12 12 11 10 9 8 7 6 6 5 5 4 4 5 5 5 5 5 6 7 7 8 8 9 9 10 10 11 11 12 13 13 15 17 18 18 18 19 23 26 29 32 34 36 37 38 39 40 40 41 41 41 42 43 44 45 47 48 46 43 41 38 36 34 33 31 30
16 15 13 11 10 9 8 8 8 9 10 10 10 11 12 12 12 12 11 10 9 8 7 6 5 4 4 3 3 3 3 4 5 5 6 6 7 7 8 8 8 9 10 11 11 12 12 13 14 14 15 17 18 17 17 19 22 25 27 30 32 34 36 38 39 41 42 43 43 44 45 46 47 48 50 51 49 47 44 40 38 36 34 32 31
17 16 14 11 10 9 9 9 9 10 11 11 11 12 12 11 10 9 8 7 6 5 5 4 3 2 2 2 2 3 4 5 6 7 7 8 8 9 9 10 10 10 11 11 12 13 13 14 14 14 15 17 18 19 19 20 21 23 25 27 29 31 34 36 38 40 42 43 45 46 48 49 49 50 52 52 51 49 45 41 38 36 35 34 33
Wind_Direction
236 238 236 229 226 225 222 223 225 222 221 222 221 217 214 216 224 227 223 220 222 224 224 224 224 226 227 228 231 233 233 233 233 234 234 238 242 244 247 249 249 247 247 248 249 250 250 250 248 247 248 246 246 246 248 247 245 245 242 238 241 253 259 245 226 146 131 132 172 228 157 155 177 176 168 166 162 156 141 56 36 37 43 43 41
233 233 235 232 227 225 223 223 224 224 223 224 223 221 219 219 225 230 226 221 222 225 226 226 226 228 231 233 234 236 237 236 237 237 236 239 243 246 249 252 252 251 250 249 250 251 251 251 250 248 246 243 241 237 235 239 243 247 250 256 252 249 253 240 211 174 155 161 183 187 160 156 165 169 163 166 171 160 134 36 22 27 41 41 42
229 228 228 231 231 227 225 224 224 227 228 228 226 222 222 224 227 231 230 224 223 224 226 228 229 231 234 237 237 239 242 243 243 244 243 243 245 248 250 254 254 251 252 251 251 252 251 251 251 247 244 242 237 232 235 239 244 250 257 263 253 241 245 240 219 206 194 183 185 190 185 169 161 172 172 166 176 178 156 14 9 22 39 43 44
227 226 224 227 230 228 227 226 226 227 227 227 227 225 225 227 230 232 233 230 226 226 228 229 230 231 234 237 239 242 245 247 247 247 247 246 246 247 249 252 253 251 250 250 249 248 248 248 249 246 242 241 241 237 239 241 245 254 256 253 247 238 238 240 227 211 210 201 187 185 195 195 187 190 190 173 167 190 211 343 5 28 38 42 44
226 226 224 225 229 231 232 231 229 227 227 227 227 228 230 231 232 233 234 235 233 231 231 230 230 231 232 233 235 237 240 241 242 242 244 244 245 245 246 249 251 251 249 247 247 245 245 246 246 243 240 240 242 242 242 242 245 252 252 245 241 236 232 241 234 215 214 207 190 182 188 206 211 204 196 188 192 222 246 306 360 32 41 42 41
225 228 228 229 233 235 235 233 232 231 230 230 230 231 234 235 235 235 236 238 238 236 235 233 233 233 233 233 234 235 236 237 239 241 243 245 247 246 246 247 248 248 246 245 246 246 244 243 242 241 240 240 242 244 242 239 240 244 245 240 238 235 229 234 231 214 213 211 202 197 192 202 210 199 194 195 200 223 245 265 330 22 32 36 36
220 226 230 233 234 235 236 236 235 235 234 233 234 234 235 236 237 237 238 239 240 241 240 238 237 237 237 238 240 241 242 243 244 245 246 247 249 249 248 247 246 245 245 244 245 247 245 243 241 241 241 240 240 243 241 236 237 239 238 238 240 240 230 229 230 220 214 214 209 205 201 201 199 194 197 199 197 210 229 243 279 358 11 18 28
218 220 225 231 235 236 238 239 238 237 237 237 237 237 236 237 239 240 241 241 241 242 243 242 241 241 241 241 241 243 245 247 248 248 248 248 248 247 247 247 246 244 243 242 243 245 245 243 242 240 239 238 239 241 239 235 237 238 236 236 242 246 237 226 227 228 220 215 209 202 199 199 196 197 204 207 205 208 217 228 252 304 343 6 20
224 224 225 229 234 238 240 241 241 239 237 237 238 239 240 239 239 239 240 241 242 242 243 244 243 243 244 243 243 244 245 246 246 246 247 246 246 246 246 247 247 244 242 242 242 244 244 244 243 240 237 236 237 237 236 235 238 239 237 236 240 248 247 233 228 234 230 215 206 201 199 197 196 197 199 203 207 207 209 220 240 281 330 356 11
229 231 231 231 233 238 241 241 241 239 237 237 239 240 242 241 238 237 238 240 241 242 243 244 244 244 244 244 244 244 244 243 243 243 243 243 243 244 245 246 247 245 243 242 241 242 243 244 243 242 240 237 236 235 235 236 238 241 238 237 241 244 248 245 238 240 230 210 203 203 205 204 201 200 198 199 201 199 199 209 224 258 323 347 360
231 233 234 234 235 237 240 240 240 240 239 240 242 242 243 243 240 239 238 239 241 242 243 245 245 245 245 246 245 245 244 243 242 242 242 242 242 242 243 246 247 245 244 242 240 240 242 244 244 243 242 240 237 236 237 237 238 241 238 238 242 237 237 243 241 238 226 210 206 205 207 211 210 207 204 201 199 194 191 199 221 263 312 324 325
232 233 233 232 233 234 235 237 239 240 241 242 244 244 243 244 244 241 239 239 240 241 242 244 246 247 248 248 247 247 246 245 245 245 244 245 245 244 243 244 245 244 242 240 239 238 240 242 242 242 242 240 238 238 239 238 238 239 235 236 238 231 233 239 236 234 223 210 208 207 206 211 212 210 207 203 198 194 192 203 234 270 307 316 322
233 234 234 231 231 232 232 234 236 238 241 242 244 244 243 244 244 243 241 240 240 240 242 243 245 248 250 249 249 248 248 247 248 248 247 247 247 247 244 244 245 244 242 241 241 240 241 242 242 242 242 240 240 241 239 238 239 239 237 236 234 232 238 238 230 229 221 209 209 210 208 211 211 209 206 202 199 197 198 213 239 268 300 325 344
233 236 237 234 231 230 231 233 235 237 240 242 243 242 242 243 243 243 242 240 240 241 242 243 245 248 249 250 249 248 248 249 249 250 249 248 248 248 247 246 247 248 247 247 247 245 244 245 244 243 244 244 243 242 240 237 239 241 241 238 232 232 238 238 231 226 215 207 209 210 209 211 210 209 206 204 203 204 209 219 237 270 310 352 14
232 235 237 235 232 229 228 230 233 235 238 241 242 242 242 242 242 243 243 241 240 240 242 243 245 247 247 248 249 248 249 249 250 251 250 249 248 248 248 247 249 251 250 249 249 248 247 245 243 242 246 247 244 242 241 239 238 240 242 241 235 233 237 239 235 222 210 208 209 208 208 210 210 209 207 206 207 211 222 233 244 266 318 6 21
241 239 240 239 236 234 233 234 236 238 239 241 243 244 244 244 244 244 244 243 241 241 242 244 246 246 246 247 248 248 249 248 248 249 250 249 248 247 248 248 249 250 250 248 247 248 247 245 243 244 246 247 243 241 244 243 240 240 242 243 240 238 238 237 230 216 209 208 208 206 208 209 210 209 207 208 212 218 230 243 262 282 323 4 8
254 254 253 251 248 248 248 249 249 250 250 250 252 253 252 251 249 248 248 246 245 244 244 244 245 246 247 248 249 248 248 249 249 249 249 248 246 247 247 247 248 249 249 248 248 246 244 243 245 246 247 247 243 241 245 246 241 240 244 244 242 241 239 232 222 211 207 207 206 206 208 208 209 209 208 211 215 223 234 244 266 291 324 346 351
260 263 265 264 261 261 261 261 261 260 260 259 258 259 258 256 253 251 250 249 249 248 247 247 247 247 248 248 249 249 249 249 249 248 247 246 245 246 246 246 246 248 249 249 248 245 240 239 242 247 248 247 244 241 243 244 242 243 247 248 246 246 237 224 213 208 207 206 205 206 208 209 209 209 209 213 216 224 236 249 271 295 319 335 341
258 264 270 270 267 264 260 259 259 258 259 259 257 256 254 253 251 250 250 249 249 249 248 249 249 248 249 249 249 249 249 248 247 246 245 244 245 246 246 247 247 248 249 250 249 245 239 235 238 244 247 245 243 242 243 245 246 247 247 247 251 248 231 214 208 206 206 206 205 207 209 209 209 209 211 214 219 226 237 251 274 297 315 329 335
257 262 267 269 266 263 258 258 258 257 257 257 257 257 256 255 253 251 252 251 251 251 250 249 249 249 249 248 248 247 247 247 246 245 244 244 246 247 247 248 248 249 249 250 250 246 239 234 236 242 244 241 241 242 243 248 251 247 243 246 251 240 218 207 206 206 205 205 206 208 209 209 209 211 213 215 221 228 239 253 270 294 310 323 330
260 264 273 278 277 276 271 268 266 264 262 257 255 255 255 255 255 253 251 251 253 254 254 252 250 249 248 248 247 246 245 245 244 244 244 244 246 246 247 247 248 249 249 250 250 248 240 234 235 240 241 241 243 241 241 249 254 249 244 245 244 226 210 205 206 206 204 204 207 208 209 210 210 212 214 218 223 230 238 253 269 287 306 317 324
286 293 298 295 289 286 282 279 277 275 273 267 258 253 250 250 251 250 249 249 252 255 255 254 252 249 247 247 246 244 243 242 242 242 242 244 245 246 246 246 246 247 249 250 251 249 241 235 236 240 242 243 243 241 241 248 255 253 245 242 237 220 208 205 206 206 205 205 207 209 210 211 211 212 216 219 225 232 239 253 270 287 306 314 319
296 302 309 302 290 283 277 276 275 274 275 275 271 262 255 252 252 252 252 252 254 256 257 257 255 251 248 246 244 243 243 242 242 241 242 243 245 245 245 244 245 247 248 249 250 247 241 238 237 239 241 243 243 241 240 241 253 258 247 243 239 222 209 207 206 206 207 208 209 209 210 212 212 214 217 221 225 231 239 251 265 286 306 313 318
125 115 105 90 57 303 275 269 266 264 263 264 269 269 265 262 260 260 260 258 257 258 259 260 260 258 254 251 249 247 246 246 245 244 244 244 243 243 243 244 246 248 248 249 249 246 243 240 237 237 239 241 244 241 235 234 252 260 248 242 241 225 212 209 209 207 209 211 211 211 212 213 214 215 218 222 226 230 237 248 262 282 303 311 316
118 104 94 81 67 52 29 342 296 278 268 264 264 266 267 267 267 266 265 264 263 262 263 264 265 265 262 260 256 252 250 249 248 248 248 247 246 246 247 248 249 249 249 250 249 246 244 239 237 238 238 243 247 239 231 234 252 255 246 240 238 226 214 209 209 210 211 213 213 213 214 215 216 218 220 222 225 230 235 245 262 282 298 307 311
110 96 86 73 62 50 41 31 14 352 325 306 295 291 286 277 273 269 265 264 264 265 266 267 265 263 262 260 258 253 250 249 249 250 251 251 250 249 248 249 250 250 250 252 252 249 244 239 239 240 239 246 248 236 227 236 248 251 249 241 232 223 215 210 209 210 212 214 214 214 215 216 217 219 221 224 226 229 235 242 260 280 292 302 308
117 98 84 69 63 53 46 41 33 28 17 352 327 313 304 289 279 270 261 258 258 261 265 266 266 263 260 260 258 255 252 250 250 251 251 251 250 248 247 246 246 247 250 253 253 252 248 241 238 237 241 250 246 232 226 233 241 247 250 241 227 218 214 210 209 210 212 214 214 215 216 217 219 220 220 224 226 228 234 241 259 278 289 298 305
143 120 97 74 65 55 47 43 36 29 24 17 4 345 328 307 293 282 275 271 266 267 271 272 274 273 269 268 265 263 261 258 257 256 255 254 252 249 248 247 247 249 251 252 251 250 250 247 239 231 237 248 240 230 230 233 237 243 244 236 224 215 212 210 209 210 212 214 214 215 216 217 219 220 220 222 226 227 231 241 258 275 285 293 301
187 180 154 90 30 21 21 22 21 17 12 9 6 358 348 334 319 303 292 286 279 277 276 274 275 276 274 271 266 264 263 261 261 260 259 257 254 250 247 245 245 246 247 248 248 245 245 249 244 233 231 236 234 232 233 232 234 241 238 229 220 214 212 210 209 211 213 215 216 216 216 218 219 219 220 222 224 227 231 241 254 269 281 289 296
214 219 223 246 273 294 316 330 341 351 356 354 352 349 344 336 328 319 306 293 282 276 273 272 273 273 271 270 266 262 260 259 260 260 259 258 255 252 248 243 241 239 240 242 242 242 243 245 245 238 231 231 236 235 231 228 234 243 239 227 218 213 212 211 211 213 214 215 216 217 217 218 218 218 221 222 223 226 231 241 253 266 278 286 293
227 235 246 261 269 276 289 301 309 316 322 326 328 330 331 329 324 316 307 299 290 281 273 270 272 272 272 272 270 266 263 261 261 260 259 257 254 251 248 244 240 235 235 236 237 241 244 242 244 242 232 231 239 236 229 230 237 243 239 228 218 214 213 213 213 215 218 218 218 217 217 218 218 219 221 221 222 226 233 243 254 266 276 284 291
236 248 260 270 273 277 285 292 297 301 304 308 312 313 316 321 321 312 300 293 292 289 280 271 269 270 270 270 268 267 266 264 262 261 258 254 251 249 246 244 242 237 234 234 234 238 241 241 247 245 233 230 236 231 228 234 240 243 237 226 219 217 216 215 215 216 219 220 220 219 218 218 219 220 220 221 223 227 233 244 255 267 276 283 289
248 258 265 272 275 278 284 288 293 297 299 301 303 303 306 311 315 311 298 288 284 284 281 276 271 269 268 267 266 265 265 264 263 261 257 251 246 245 243 241 241 238 235 234 234 235 237 240 248 248 239 234 232 227 226 232 239 244 236 223 219 220 219 218 218 217 219 220 220 220 219 219 220 220 220 220 222 226 233 243 254 266 275 283 289
255 261 267 271 275 280 283 286 293 296 295 296 296 298 301 302 304 305 300 289 279 276 276 274 273 271 270 268 266 263 263 262 259 256 253 247 240 237 238 236 234 233 233 235 235 235 238 243 249 250 244 237 229 226 229 235 242 244 234 221 219 220 221 222 221 221 222 221 221 221 221 222 222 222 221 222 223 227 233 242 254 264 275 283 288
253 260 267 271 275 278 279 284 292 291 285 287 291 295 295 290 288 291 292 289 281 275 275 274 273 274 273 270 267 264 261 258 253 249 245 241 234 228 226 225 225 229 232 235 236 235 240 246 249 248 242 232 225 226 234 241 244 240 228 219 219 220 221 222 222 223 224 223 222 222 223 223 224 223 223 223 223 227 233 243 253 263 275 281 284
253 260 265 267 269 269 271 279 288 285 279 280 286 290 287 277 273 275 280 283 282 279 278 278 277 276 273 270 265 262 259 257 252 245 238 234 229 225 224 224 227 232 234 234 236 237 239 242 245 245 236 227 225 231 238 240 239 233 224 219 219 221 222 222 222 223 223 223 223 223 223 223 223 223 224 223 224 228 234 243 253 264 277 283 285
255 257 258 259 260 264 270 277 280 278 275 276 279 282 278 268 263 264 268 273 276 278 279 279 278 276 272 268 263 260 259 258 256 249 240 232 227 224 225 228 233 238 239 238 237 238 238 239 243 242 231 225 230 242 245 242 238 232 225 222 222 223 224 224 223 223 223 223 223 223 223 224 225 225 225 224 226 230 236 243 254 267 279 286 290
256 256 254 255 259 264 269 272 272 271 272 272 273 273 267 259 256 256 258 262 268 272 275 277 277 274 270 266 261 260 260 259 260 255 244 235 228 226 226 229 234 237 240 243 242 240 240 239 239 234 227 231 245 253 252 249 243 235 228 225 225 226 226 225 224 223 223 224 223 224 224 225 226 226 226 226 228 233 239 245 256 270 281 288 292
257 256 256 258 261 262 264 267 267 268 269 267 266 264 258 255 252 250 250 253 258 264 268 270 271 268 266 265 262 260 259 258 258 255 247 237 229 226 227 230 233 233 234 239 242 240 239 237 233 230 233 244 254 256 255 254 246 236 229 227 227 228 228 227 226 225 224 224 224 225 225 226 227 225 225 227 231 235 241 248 257 270 281 288 292
246 249 251 253 255 256 257 260 262 263 264 261 257 254 252 253 251 248 248 249 251 256 257 258 259 258 258 259 257 254 253 252 252 250 246 239 230 225 225 228 232 231 230 234 239 239 237 235 234 237 245 252 255 254 255 253 245 235 230 228 228 230 230 230 229 228 227 227 227 227 227 227 227 226 226 229 233 238 243 249 258 269 279 286 291
234 238 242 245 251 253 254 256 258 259 259 254 250 248 248 249 250 251 254 254 252 252 250 250 252 252 252 252 250 249 247 245 244 244 242 239 234 229 228 228 229 230 230 232 237 238 238 239 241 246 251 255 256 257 257 254 245 237 231 230 231 233 234 234 234 233 232 232 232 231 231 230 229 228 229 232 236 240 244 250 259 268 276 283 288
225 230 238 245 250 251 251 254 256 256 253 247 242 242 244 248 251 253 256 258 255 251 248 247 248 249 248 246 243 244 245 244 245 247 246 244 241 236 235 235 234 234 235 236 238 240 242 244 247 251 255 257 259 260 257 251 243 236 233 232 233 235 237 237 236 236 235 235 236 236 235 235 233 232 232 235 239 242 246 252 259 266 272 280 285
224 233 242 245 244 243 244 247 247 245 242 237 235 237 240 244 247 248 250 252 251 248 245 244 245 246 245 243 242 243 246 247 247 248 247 245 243 240 239 239 239 240 241 243 244 245 247 249 251 254 256 258 257 254 249 242 238 234 233 234 235 236 237 237 237 238 239 239 240 239 238 237 237 235 235 237 241 245 248 253 259 264 271 278 283
231 234 238 237 237 237 234 233 233 231 232 234 235 238 240 241 243 244 246 247 246 245 243 242 242 242 240 240 240 239 241 241 240 240 240 239 238 238 239 240 242 243 245 247 248 250 251 253 255 256 256 256 254 249 242 237 235 233 233 234 236 236 237 237 238 239 240 240 242 242 241 240 239 237 237 240 243 246 249 253 257 262 269 276 281
226 223 224 224 229 231 225 225 227 224 227 233 233 236 238 238 239 238 237 237 235 234 233 229 227 226 222 221 223 223 225 228 228 230 233 234 236 239 241 244 247 249 252 254 256 257 258 259 260 261 260 260 258 253 246 240 237 235 234 235 237 238 239 240 240 241 240 240 240 241 242 242 241 239 239 241 244 246 248 253 257 261 268 275 277
201 201 208 211 217 221 219 222 219 211 218 222 219 222 223 223 225 222 218 220 216 210 207 202 197 196 195 196 200 203 209 214 220 225 229 232 236 240 243 249 253 256 261 265 265 267 267 266 266 266 266 265 264 260 255 248 243 240 238 238 239 240 241 242 242 242 241 240 240 239 238 238 239 240 240 241 244 246 249 253 256 259 265 270 269
185 190 198 198 202 208 210 210 204 198 201 202 200 203 204 204 207 205 201 200 193 187 183 179 177 177 178 182 189 195 201 208 214 221 227 231 237 243 248 255 260 264 268 271 272 274 275 275 275 274 272 270 268 265 260 254 250 246 244 244 244 244 243 243 243 243 243 242 241 239 237 236 237 239 241 243 244 246 248 251 254 258 263 265 263
189 191 188 186 189 197 200 199 198 194 192 190 191 192 191 193 192 187 182 178 174 172 171 169 171 173 174 180 189 195 202 210 217 223 228 231 237 245 249 252 257 261 265 268 271 274 276 278 278 275 273 270 267 266 264 261 258 255 252 250 249 248 248 247 246 245 245 244 243 241 239 238 237 238 241 243 244 246 248 251 255 259 262 262 262
190 183 181 184 188 192 195 196 195 194 190 188 187 185 182 180 175 170 168 166 166 167 166 167 170 172 175 184 195 203 215 227 236 244 248 249 252 256 258 259 261 265 266 267 268 269 270 271 270 268 268 268 268 269 271 269 265 262 258 256 255 254 254 253 251 249 248 246 245 245 243 242 241 242 244 245 246 247 249 252 256 259 261 263 265
180 177 181 186 189 192 195 193 191 190 187 182 179 176 172 168 166 165 163 162 163 163 164 167 172 174 183 200 216 239 257 266 275 280 282 281 281 282 283 282 281 279 279 278 277 277 275 272 270 269 269 270 271 270 267 264 263 262 261 260 260 259 258 257 255 252 250 248 248 248 248 247 246 247 248 248 249 249 250 253 258 261 263 265 268
175 180 183 186 190 192 191 188 185 182 178 173 171 169 165 161 159 157 155 154 156 156 159 164 169 179 206 244 270 288 299 303 303 305 307 306 303 301 301 299 297 294 292 290 289 289 286 283 281 278 274 272 271 269 266 263 263 264 264 264 264 263 263 261 259 257 254 252 252 251 251 251 251 250 251 251 251 251 252 256 260 263 264 267 270